Appleton, MN

11:56 AM CDT on June 22, 2017 (GMT -0500)
Appleton Municipal

Weather History for KAQP - May, 2013

Change the Weather History Date:

Friday, May 17, 2013

  Actual Average Record
Temperature  
Mean Temperature 66 °F -  
Max Temperature 71 °F 65 °F 93 °F (2012)
Min Temperature 60 °F 43 °F 30 °F (2002)
Growing Degree Days 16 (Base 50)    
Moisture  
Dew Point 50 °F    
Average Humidity 60    
Maximum Humidity 82    
Minimum Humidity 27    
Precipitation  
Precipitation 0.00 in - - ()
Sea Level Pressure  
Sea Level Pressure 29.87 in    
Wind  
Wind Speed 13 mph (ESE)    
Max Wind Speed 23 mph    
Max Gust Speed 29 mph    
Visibility 9 miles    
Events Thunderstorm    
Averages and records for this station are not official NWS values.
T = Trace of Precipitation, MM = Missing Value Source: NWS Daily Summary

Daily Weather History Graph

Daily Weather History Graph

Search for Another Location

Airport or City:

Trip Planner

Search our weather history database for the weather conditions in past years. The results will help you decide how hot, cold, wet, or windy it might be!

Date:

Astronomy

May. 17, 2013 Rise Set
Actual Time 5:51 AM CDT 8:49 PM CDT
Civil Twilight 5:17 AM CDT 9:24 PM CDT
Nautical Twilight 4:32 AM CDT 10:09 PM CDT
Astronomical Twilight 3:40 AM CDT 11:02 PM CDT
Moon 12:33 PM CDT (5/17) 1:35 AM CDT (5/17)
Length of Visible Light 16h 07m
Length of Day
14h 58m
Waxing Crescent, 45% of the Moon is Illuminated
May 17
Waxing Crescent
May 17
First Quarter
May 24
Full
May 31
Last Quarter
Jun 8
New

Hourly Weather History & Observations

Time (CDT) Temp. Dew Point Humidity Pressure Visibility Wind Dir Wind Speed Gust Speed Precip Events Conditions
12:13 AM 69.8 °F 37.4 °F 31% 29.85 in 10.0 mi East 10.4 mph - N/A   Overcast
12:33 AM 69.8 °F 35.6 °F 28% 29.85 in 10.0 mi East 15.0 mph - N/A   Overcast
12:53 AM 69.8 °F 35.6 °F 28% 29.85 in 10.0 mi ESE 9.2 mph - N/A   Overcast
1:14 AM 68.0 °F 35.6 °F 30% 29.86 in 10.0 mi ESE 8.1 mph - N/A   Overcast
1:34 AM 69.8 °F 35.6 °F 28% 29.86 in 10.0 mi ESE 9.2 mph - N/A   Overcast
1:53 AM 69.8 °F 33.8 °F 27% 29.87 in 10.0 mi SE 10.4 mph - N/A   Overcast
2:13 AM 68.0 °F 33.8 °F 28% 29.86 in 10.0 mi SE 17.3 mph 21.9 mph N/A   Overcast
2:33 AM 66.2 °F 33.8 °F 30% 29.87 in 10.0 mi SE 16.1 mph 20.7 mph N/A   Overcast
2:53 AM 66.2 °F 33.8 °F 30% 29.87 in 10.0 mi SE 11.5 mph 17.3 mph N/A   Overcast
3:14 AM 64.4 °F 37.4 °F 37% 29.86 in 10.0 mi SE 13.8 mph - N/A   Overcast
3:33 AM 64.4 °F 37.4 °F 37% 29.85 in 10.0 mi ESE 10.4 mph - N/A   Overcast
3:53 AM 64.4 °F 37.4 °F 37% 29.85 in 10.0 mi SE 9.2 mph - N/A   Overcast
4:13 AM 62.6 °F 37.4 °F 39% 29.84 in 10.0 mi SE 11.5 mph - N/A   Scattered Clouds
4:33 AM 62.6 °F 39.2 °F 42% 29.85 in 10.0 mi SE 10.4 mph - N/A   Scattered Clouds
4:53 AM 62.6 °F 41.0 °F 45% 29.85 in 10.0 mi ESE 8.1 mph - N/A   Overcast
5:13 AM 60.8 °F 41.0 °F 48% 29.86 in 10.0 mi ESE 6.9 mph - N/A   Mostly Cloudy
5:33 AM 62.6 °F 42.8 °F 48% 29.87 in 10.0 mi ESE 6.9 mph - N/A   Overcast
5:53 AM 62.6 °F 41.0 °F 45% 29.86 in 10.0 mi ESE 6.9 mph - N/A   Overcast
6:14 AM 60.8 °F 39.2 °F 45% 29.87 in 10.0 mi ESE 6.9 mph - N/A   Overcast
6:33 AM 62.6 °F 39.2 °F 42% 29.87 in 10.0 mi East 9.2 mph - N/A   Overcast
7:13 AM 62.6 °F 41.0 °F 45% 29.88 in 10.0 mi ESE 9.2 mph - N/A   Overcast
7:34 AM 62.6 °F 41.0 °F 45% 29.89 in 10.0 mi ESE 9.2 mph - N/A   Overcast
7:53 AM 62.6 °F 42.8 °F 48% 29.89 in 10.0 mi ESE 9.2 mph - N/A   Overcast
8:13 AM 62.6 °F 44.6 °F 52% 29.90 in 10.0 mi SE 9.2 mph - N/A   Overcast
8:33 AM 64.4 °F 44.6 °F 49% 29.89 in 10.0 mi ESE 8.1 mph - N/A   Overcast
8:53 AM 64.4 °F 46.4 °F 52% 29.89 in 10.0 mi ESE 10.4 mph - N/A   Overcast
9:13 AM 64.4 °F 48.2 °F 56% 29.89 in 10.0 mi ESE 12.7 mph - N/A   Overcast
9:33 AM 64.4 °F 50.0 °F 59% 29.89 in 10.0 mi ESE 11.5 mph - N/A   Overcast
9:53 AM 64.4 °F 53.6 °F 68% 29.89 in 10.0 mi ESE 11.5 mph 18.4 mph N/A   Overcast
10:13 AM 62.6 °F 55.4 °F 77% 29.89 in 7.0 mi ESE 11.5 mph 19.6 mph N/A   Overcast
10:34 AM 62.6 °F 57.2 °F 82% 29.90 in 4.0 mi ESE 16.1 mph - N/A   Haze
10:53 AM 62.6 °F 57.2 °F 82% 29.90 in 5.0 mi East 13.8 mph - N/A   Overcast
11:13 AM 62.6 °F 57.2 °F 82% 29.90 in 10.0 mi ESE 17.3 mph 20.7 mph N/A   Overcast
11:34 AM 62.6 °F 57.2 °F 82% 29.91 in 10.0 mi SE 12.7 mph - N/A   Overcast
11:53 AM 62.6 °F 57.2 °F 82% 29.91 in 10.0 mi ESE 15.0 mph 19.6 mph N/A   Overcast
12:13 PM 62.6 °F 57.2 °F 82% 29.91 in 10.0 mi ESE 16.1 mph 20.7 mph N/A   Overcast
12:33 PM 62.6 °F 57.2 °F 82% 29.90 in 10.0 mi ESE 15.0 mph 20.7 mph N/A   Overcast
12:53 PM 64.4 °F 57.2 °F 77% 29.90 in 10.0 mi East 16.1 mph 19.6 mph N/A   Overcast
1:13 PM 64.4 °F 57.2 °F 77% 29.89 in 10.0 mi ESE 16.1 mph 20.7 mph N/A   Overcast
1:34 PM 66.2 °F 57.2 °F 73% 29.88 in 10.0 mi East 20.7 mph 24.2 mph N/A   Overcast
1:53 PM 66.2 °F 57.2 °F 73% 29.88 in 10.0 mi ESE 15.0 mph 27.6 mph N/A   Overcast
2:14 PM 69.8 °F 57.2 °F 64% 29.87 in 10.0 mi ESE 23.0 mph 28.8 mph N/A   Scattered Clouds
2:33 PM 69.8 °F 57.2 °F 64% 29.87 in 10.0 mi ESE 21.9 mph 27.6 mph N/A   Scattered Clouds
2:53 PM 71.6 °F 57.2 °F 60% 29.86 in 10.0 mi ESE 18.4 mph 26.5 mph N/A   Scattered Clouds
3:13 PM 71.6 °F 57.2 °F 60% 29.86 in 10.0 mi ESE 18.4 mph 28.8 mph N/A   Mostly Cloudy
3:33 PM 71.6 °F 59.0 °F 64% 29.86 in 10.0 mi ESE 18.4 mph 25.3 mph N/A   Mostly Cloudy
3:53 PM 71.6 °F 59.0 °F 64% 29.86 in 10.0 mi ESE 20.7 mph 25.3 mph N/A   Mostly Cloudy
4:13 PM 71.6 °F 59.0 °F 64% 29.85 in 10.0 mi ESE 18.4 mph 25.3 mph N/A   Overcast
4:33 PM 69.8 °F 57.2 °F 64% 29.86 in 10.0 mi ESE 19.6 mph 27.6 mph N/A   Mostly Cloudy
4:53 PM 71.6 °F 59.0 °F 64% 29.85 in 10.0 mi ESE 20.7 mph 26.5 mph N/A   Scattered Clouds
5:13 PM 71.6 °F 57.2 °F 60% 29.85 in 10.0 mi ESE 17.3 mph 25.3 mph N/A   Mostly Cloudy
5:33 PM 69.8 °F 57.2 °F 64% 29.85 in 10.0 mi ESE 18.4 mph 27.6 mph N/A   Mostly Cloudy
5:53 PM 69.8 °F 57.2 °F 64% 29.85 in 10.0 mi ESE 17.3 mph 26.5 mph N/A   Mostly Cloudy
6:13 PM 69.8 °F 57.2 °F 64% 29.85 in 10.0 mi ESE 18.4 mph 23.0 mph N/A   Scattered Clouds
6:33 PM 68.0 °F 57.2 °F 68% 29.85 in 10.0 mi ESE 17.3 mph 26.5 mph N/A   Mostly Cloudy
6:53 PM 68.0 °F 57.2 °F 68% 29.85 in 10.0 mi East 18.4 mph 25.3 mph N/A   Overcast
7:13 PM 68.0 °F 57.2 °F 68% 29.85 in 10.0 mi ESE 17.3 mph - N/A   Mostly Cloudy
7:33 PM 68.0 °F 57.2 °F 68% 29.85 in 10.0 mi ESE 18.4 mph 23.0 mph N/A   Scattered Clouds
7:53 PM 66.2 °F 57.2 °F 73% 29.85 in 10.0 mi ESE 16.1 mph 24.2 mph N/A   Mostly Cloudy
8:13 PM 66.2 °F 57.2 °F 73% 29.85 in 10.0 mi ESE 18.4 mph 23.0 mph N/A   Mostly Cloudy
8:33 PM 64.4 °F 57.2 °F 77% 29.85 in 10.0 mi ESE 15.0 mph 21.9 mph N/A   Overcast
8:53 PM 64.4 °F 57.2 °F 77% 29.85 in 10.0 mi ESE 16.1 mph 21.9 mph N/A   Overcast
9:13 PM 62.6 °F 57.2 °F 82% 29.86 in 10.0 mi ESE 17.3 mph 23.0 mph N/A Thunderstorm Overcast
9:33 PM 62.6 °F 57.2 °F 82% 29.87 in 10.0 mi ESE 16.1 mph - N/A   Overcast
9:53 PM 62.6 °F 57.2 °F 82% 29.87 in 7.0 mi ESE 15.0 mph 19.6 mph N/A   Overcast
10:14 PM 62.6 °F 57.2 °F 82% 29.87 in 7.0 mi ESE 13.8 mph - N/A   Overcast
10:33 PM 60.8 °F 55.4 °F 82% 29.88 in 7.0 mi ESE 15.0 mph - N/A   Overcast
10:54 PM 60.8 °F 55.4 °F 82% 29.88 in 7.0 mi ESE 13.8 mph - N/A   Overcast
11:13 PM 60.8 °F 55.4 °F 82% 29.88 in 5.0 mi ESE 15.0 mph - N/A   Overcast
11:33 PM 60.8 °F 55.4 °F 82% 29.87 in 5.0 mi ESE 15.0 mph 21.9 mph N/A   Overcast
11:54 PM 60.8 °F 55.4 °F 82% 29.87 in 5.0 mi ESE 16.1 mph - N/A   Overcast